Regional Weather Roundup
Issued by NWS Charleston, WV

Home | Current Version | Previous Version | Text Only | Print | Product List | Glossary On
Versions: 1 2 3 4 5 6 7 8 9 10 11 12 13 14 15 16 17 18 19 20 21 22 23 24 25 26 27
000
ASUS41 KRLX 091710
RWRRLX
Regional Weather Roundup
National Weather Service Charleston WV
100 PM EDT SUN MAY 09 2021

Note: "fair" indicates few or no clouds below 12,000 feet with no
significant weather and/or obstructions to visibility.

WVZ003-091800-
Northern Panhandle of West Virginia

CITY           SKY/WX    TMP DP  RH WIND       PRES   REMARKS
WHEELING       LGT RAIN  43  42  97 E12       29.85F
$$

WVZ009-091800-
Northwest West Virginia

CITY           SKY/WX    TMP DP  RH WIND       PRES   REMARKS
PARKERSBURG    LGT RAIN  50  44  80 E5        29.81F
$$

WVZ006-091800-
Western West Virginia

CITY           SKY/WX    TMP DP  RH WIND       PRES   REMARKS
HUNTINGTON     CLOUDY    74  48  39 SW13G24   29.74F
$$

WVZ015-091800-
West Central West Virginia

CITY           SKY/WX    TMP DP  RH WIND       PRES   REMARKS
CHARLESTON     CLOUDY    74  47  38 SW10G25   29.76F
$$

WVZ509-031-039-091800-
North Central West Virginia

CITY           SKY/WX    TMP DP  RH WIND       PRES   REMARKS
MORGANTOWN     PTSUNNY   55  44  66 SE8       29.82F
CLARKSBURG     CLOUDY    55  49  80 CALM      29.79F
BUCKHANNON     CLOUDY    70  45  40 S15G26    29.77F
$$

WVZ515-516-025-034-042-507-091800-
Southern West Virginia

CITY           SKY/WX    TMP DP  RH WIND       PRES   REMARKS
BECKLEY        PTSUNNY   71  43  36 S20G31    29.89F
LOGAN          FAIR      75  45  33 N9G22     29.82F
PINEVILLE      PTSUNNY   78  41  26 MISG      29.90F
BLUEFIELD      PTSUNNY   69  39  33 SW12G26   29.95F
LEWISBURG      SUNNY     64  41  42 SW13      29.96F
$$

WVZ525-526-091800-
Northern Mountains of West Virginia

CITY           SKY/WX    TMP DP  RH WIND       PRES   REMARKS
ELKINS         PTSUNNY   68  40  35 S13G24    29.84F
$$

WVZ502-504-052-091800-
Eastern Panhandle of West Virginia

CITY           SKY/WX    TMP DP  RH WIND       PRES   REMARKS
PETERSBURG     PTSUNNY   56  49  78 NW7       29.92F
CUMBERLAND     LGT RAIN  47  44  86 CALM      29.99F
MARTINSBURG    CLOUDY    52  43  71 VRB7      29.97F
$$

OHZ075-083-KYZ101-091800-
Southeast Ohio/Northeast Kentucky

CITY           SKY/WX    TMP DP  RH WIND       PRES   REMARKS
ATHENS         CLOUDY    49  47  93 E7        29.77F
JACKSON        LGT RAIN  52  46  82 NE6       29.78F
ASHLAND        CLOUDY    67  55  65 VRB3      29.74F
$$



USA.gov is the U.S. government's official web portal to all federal, state and local government web resources and services.